Location: Buffign�court
(47.8126°N, 6.0176°E)
Time: 20:04:02
(UTC+00:00)

Cosmos 1441 Rocket - Pass Details

Date: 16 June 2021
Orbit: 495 x 539 km, 81.1° (Epoch: 23 July)

Event Time Altitude Azimuth Distance (km) Brightness Sun altitude
Exits shadow 22:52:14 34° 122° (ESE) 881 4.0 -18.1°
Maximum altitude 22:52:58 37° 95° (E) 819 4.0 -18.1°
Drops below altitude 10° 22:56:33 10° 27° (NNE) 1,754 6.7 -18.2°
Sets 22:58:46 0° 19° (NNE) 2,638 7.9 -18.3°
